Regional Weather Roundup
Issued by NWS Kansas City/Pleasant Hill, MO

Home | Current Version | Previous Version | Text Only | Print | Product List | Glossary On
Versions: 1 2 3 4 5 6 7 8 9 10 11 12 13 14 15 16 17 18 19 20 21 22 23 24 25 26 27
000
ASUS43 KEAX 241410
RWREAX

WEATHER ROUNDUP FOR EASTERN KANSAS AND NORTHWEST MISSOURI
NATIONAL WEATHER SERVICE KANSAS CITY/PLEASANT HILL MO
800 AM CST TUE JAN 24 2017

KSZ040-057-103>105-MOZ028-029-037-043-241500-
...KANSAS CITY METROPOLITAN AREA...

CITY           SKY/WX    TMP DP  RH WIND       PRES   REMARKS
K.C. INTL      CLOUDY    31  28  89 E15       29.72S FOG     WCI  20
K.C. DOWNTOWN  CLOUDY    33  31  92 E16G22    29.72F FOG     WCI  23
LEES SUMMIT    CLOUDY    31  30  96 E16G24    29.73S FOG     WCI  20
OLATHE - IXD   CLEAR     33  30  88 E15G21    29.69S WCI  23
OLATHE - OJC   CLEAR     31  30  96 E10       29.69F WCI  22
LAWRENCE       CLEAR     31  30  96 E12       29.69F FOG     WCI  22

$$

MOZ001>008-011>017-020>025-030>033-038>040-044>046-053-054-241500-
...NORTHERN AND CENTRAL MISSOURI...

CITY           SKY/WX    TMP DP  RH WIND       PRES   REMARKS
ST. JOSEPH     CLOUDY    32  32 100 E8G20     29.74S FOG     WCI  25
MOSBY            N/A     32  32 100 E12       29.76F FOG     WCI  23
WARRENSBURG    CLOUDY    32  32 100 E9        29.77S FOG     WCI  24
WHITEMAN AFB   NOT AVBL
CLINTON        PTCLDY    32  32 100 E9        29.75F FOG     WCI  24
SEDALIA        CLOUDY    33  32  96 E15       29.79F FOG     WCI  23
WARSAW         NOT AVBL
CHILLICOTHE      N/A     32  29  88 SE9       29.83S WCI  24
KIRKSVILLE     CLOUDY    31  29  92 E7        29.84S WCI  24

$$

MOZ041-047>049-056>058-063>065-088>090-097-241500-
...EASTERN AND SOUTHERN MISSOURI...

CITY           SKY/WX    TMP DP  RH WIND       PRES   REMARKS
ST. LOUIS INTL MOCLDY    37  30  75 SE6       29.91R WCI  32
SPIRIT OF STL  CLOUDY    37  34  89 CALM      29.90R
COLUMBIA       CLEAR     34  32  92 E13       29.82S WCI  25
JEFFERSON CITY CLEAR     32  31  96 E7        29.84F FOG     WCI  26
ROLLA          CLEAR     30  30 100 SE15      29.81F WCI  19
OSAGE BEACH    CLEAR     32  31  96 E5        29.82R WCI  27
SPRINGFIELD    CLEAR     40  33  76 SE21G26   29.73R WCI  30
BRANSON        PTCLDY    36  34  93 SE13      29.78R WCI  27
JOPLIN         CLEAR     42  34  73 SE14G23   29.65F WCI  35
WEST PLAINS    CLEAR     33  32  96 SE5       29.85S WCI  29

$$

IAZ060-094-KSZ022-034>040-054-083-096-NEZ052-066-093-241500-
...KANSAS...SOUTHEAST NEBRASKA AND IOWA...

CITY           SKY/WX    TMP DP  RH WIND       PRES   REMARKS
TOPEKA         CLEAR     34  30  85 E14       29.67S WCI  25
MANHATTAN      PTCLDY    34  30  85 E9        29.59F WCI  27
EMPORIA        CLEAR     34  31  88 E14       29.58F WCI  25
CHANUTE        CLEAR     39  32  76 SE12      29.62F WCI  32
WICHITA        PTCLDY    39  33  79 S10       29.51F WCI  32
OMAHA          CLOUDY    31  26  82 E9        29.76F FOG     WCI  23
LINCOLN        CLOUDY    30  29  96 E14G23    29.69F FOG     WCI  19
FALLS CITY     CLOUDY    31  30  96 E15       29.71F FOG     WCI  20
LAMONI         CLOUDY    29  28  96 E8        29.78F FOG     WCI  21
DES MOINES     CLOUDY    32  28  85 E8        29.84F WCI  25

$$





USA.gov is the U.S. government's official web portal to all federal, state and local government web resources and services.